Regional Weather Roundup
Issued by NWS New Orleans/Baton Rouge, LA

Home | Current Version | Previous Version | Text Only | Print | Product List | Glossary Off
Versions: 1 2 3 4 5 6 7 8 9 10 11 12 13 14 15 16 17 18 19 20 21 22 23 24 25 26 27 28 29 30 31 32 33 34 35 36 37 38 39 40 41 42 43 44 45 46 47 48 49 50

587
ASUS44 KLIX 012010
RWRLIX
NEW ORLEANS REGIONAL WEATHER ROUNDUP
NATIONAL WEATHER SERVICE NEW ORLEANS LA
200 PM CST SUN FEB 01 2015

NOTE: "FAIR" INDICATES FEW OR NO CLOUDS BELOW 12,000 FEET WITH NO
      SIGNIFICANT WEATHER AND/OR OBSTRUCTIONS TO VISIBILITY.
      SKY/WX - SKY CONDITION AND SIGNIFICANT WEATHER.
      TMP - AIR TEMPERATURE.     DP    - DEWPOINT TEMPERATURE.
      RH  - RELATIVE HUMIDITY.   PRES  - PRESSURE.
      HI  - HEAT INDEX.          WCI   - WIND CHILL INDEX.

*  THESE STATIONS ARE NOT NWS OR FAA STATIONS AND ARE NOT UNDER
   NWS QUALITY CONTROL.

LAZ038-040-048-061>063-065>067-069-012100-
SOUTHEAST LOUISIANA

CITY           SKY/WX    TMP DP  RH WIND       PRES   REMARKS
N.O. AUDUBON     N/A     72  64  75 MISG        N/A
N.O. INTL ARPT CLOUDY    73  59  61 SW15      29.92F
N.O. LAKEFRONT CLOUDY    74  60  61 SW21G26   29.92F
N.O. DOWNTOWN* NOT AVBL
SLIDELL        CLOUDY    72  61  68 S9        29.92F
BATON ROUGE    PTSUNNY   67  64  90 S5        29.89F
BOOTHVILLE     MOSUNNY   71  65  81 SW8       29.95F
BELLE CHASSE   PTSUNNY   74  62  66 SW12      29.93F
BOGALUSA*      LGT RAIN  67  61  81 W7G16     29.93S
GALLIANO*      CLOUDY    72  65  79 SW7       29.95S
NEW ROADS*     CLOUDY    69  65  84 S13       29.88F
GONZALES*      CLOUDY    70  65  85 SW7       29.91F
HAMMOND*       LGT RAIN  66  63  88 S3        29.93F
HOUMA*         PTSUNNY   72  63  73 SW15      29.93F
PORT FOURCHON* MOCLDY    70  64  83 SW5       29.98F

$$

MSZ070-080>082-012100-
SOUTHERN MISSISSIPPI

CITY           SKY/WX    TMP DP  RH WIND       PRES   REMARKS
MCCOMB         LGT RAIN  63  61  93 SW10      29.90F
GULFPORT       MOSUNNY   67  62  84 SW8       29.92F
BILOXI         PTSUNNY   66  63  90 SW10      29.93F
PASCAGOULA     PTSUNNY   67  64  90 S7        29.93F
STENNIS ARPT*  PTSUNNY   72  59  64 S9        29.92F

$$

COASTAL OBSERVATIONS
LAKE AND NEARSHORE STATIONS

STATION/POSITION TIME  TEMP    WIND        PRES    WAVE
                       AIR SEA DIR/SP/G            HT/PER
                 (UTC) (F)     (DEG/KT/KT) (MB)    (FT/S)
PASCAGOULA       2000   63     220/  8/ 12 1013.1
WAVELAND YACHT   2000   63     190/  6/  9 1012.5
GRAND ISLE       2000   70 63  260/  8/  9 1014.8
SOUTHWEST PASS   2000   71 49  220/  6/  7 1014.6
NEW CANAL        2000   72 57  210/ 10/ 13 1013.6
SHELL BEACH      2000   70 57  210/ 11/ 12 1013.7

OFFSHORE STATIONS

STATION/POSITION TIME  TEMP    WIND        PRES    WAVE
                       AIR SEA DIR/SP/G            HT/PER
                 (UTC) (F)     (DEG/KT/KT) (MB)    (FT/S)
64 S DAUPHIN ISL 1950   70 69  200/ 14/ 17 1014.2    6/ 7

$$




USA.gov is the U.S. government's official web portal to all federal, state and local government web resources and services.